AirNav   BOSE A20 Aviation Headset
 
 715 users online  

PAEE Eek Airport
Eek, Alaska, USA

GOING TO EEK?


FAA INFORMATION EFFECTIVE 24 MAY 2018

Location

FAA Identifier: EEK
Lat/Long: 60-12-49.3000N / 162-02-38.0000W
60-12.821667N / 162-02.633333W
60.2136944 / -162.0438889
(estimated)
Elevation: 26.5 ft. / 8.1 m (surveyed)
Variation: 15E (2005)
From city: 1 mile W of EEK, AK
Time zone: UTC -8 (UTC -9 during Standard Time)
Zip code: 99578

Airport Operations

Airport use: Open to the public
Activation date: 06/1974
Control tower: no
ARTCC: ANCHORAGE CENTER
FSS: KENAI FLIGHT SERVICE STATION [907-283-8469]
NOTAMs facility: ENA (NOTAM-D service available)
Attendance: UNATNDD
Wind indicator: lighted
Segmented circle: yes
Lights: ACTVT MIRL RY 17/35; REIL & PAPI RYS 17 & 35- CTAF.
Beacon: white-green (lighted land airport)
Operates sunset to sunrise.

Airport Communications

CTAF: 122.8
  • APCH/DEP SVC PRVDD BY ANCHORAGE ARTCC (ZAN) ON 125.2/372.0 (BETHEL RCAG).

Nearby radio navigation aids

VOR radial/distance  VOR name  Freq  Var
BETr177/34.9BETHEL VORTAC114.1014E

 
NDB name  Hdg/Dist  Freq  Var  ID
OSCARVILLE177/35.025111EOSE --- ... .

Airport Services

Airframe service: NONE
Powerplant service: NONE
Bottled oxygen: NONE
Bulk oxygen: NONE

Runway Information

Runway 17/35

Dimensions: 3242 x 60 ft. / 988 x 18 m
Surface: gravel, in good condition
Runway edge lights: medium intensity
GRASS AND BRUSH SURROUNDS RY LGTS.
RUNWAY 17  RUNWAY 35
Latitude: 60-13.084597N60-12.559118N
Longitude: 162-02.549567W162-02.718668W
Elevation: 25.2 ft.23.1 ft.
Traffic pattern: leftleft
Runway heading: 174 magnetic, 189 true354 magnetic, 009 true
Visual slope indicator: 4-light PAPI on left (3.00 degrees glide path)4-light PAPI on left (3.00 degrees glide path)
Runway end identifier lights: yesyes
Touchdown point: yes, no lightsyes, no lights
Obstructions: 3 ft. brush, 8 ft. from runway, 58 ft. right of centerline5 ft. brush, 22 ft. from runway, 60 ft. left and right of centerline

Airport Ownership and Management from official FAA records

Ownership: Publicly-owned
Owner: ALASKA DOT&PF CENTRAL REGION
PO BOX 196900
ANCHORAGE, AK 99519-6900
Phone (907) 269-0783
Manager: LAWRENCE DAVIS
BOX 505
BETHEL, AK 99559
Phone (907) 543-2498

Airport Operational Statistics

Aircraft operations: avg 38/week *
100% air taxi
* for 12-month period ending 31 December 2016

Additional Remarks

RY CONDITION NOT MONITORED; RECOMMEND VISUAL INSPECTION PRIOR TO USING.
WX CAMERA AVBL ON INTERNET AT HTTP://AVCAMS.FAA.GOV
BIRDS INVOF ARPT.
300 FT TOWER APRXLY 1.1 MILIES EAST OF ARPT.
COLD TEMPERATURE RESTRICTED AIRPORT. ALTITUDE CORRECTION REQUIRED AT OR BELOW -38C.

Instrument Procedures

NOTE: All procedures below are presented as PDF files. If you need a reader for these files, you should download the free Adobe Reader.

NOT FOR NAVIGATION. Please procure official charts for flight.
FAA instrument procedures published for use from 24 May 2018 at 0901Z to 21 June 2018 at 0900Z.

 
IAPs - Instrument Approach Procedures
RNAV (GPS) RWY 17   download (162KB)
RNAV (GPS) RWY 35   download (163KB)

Other nearby airports with instrument procedures:

PAQH - Quinhagak Airport (28 nm S)
PANA - Napakiak Airport (29 nm N)
PAPK - Napaskiak Airport (30 nm N)
PABE - Bethel Airport (34 nm N)
PFKW - Kwethluk Airport (39 nm NE)
 
Loc | Ops | Rwys | IFR | FBO | Links
Com | Nav | Svcs | Stats | Notes

Crowley
 
Area around PAEE (Eek Airport)
 
Road maps at: MapQuest Bing Google
 
Aerial photo
WARNING: Photo may not be current or correct
Aerial photo of PAEE (Eek Airport)
Photo by Security Aviation
Photo taken 20-Dec-2017
looking south over Eek.

Do you have a better or more recent aerial photo of Eek Airport that you would like to share? If so, please send us your photo.

 
Sectional chart

 
Airport distance calculator
Flying to Eek Airport? Find the distance to fly.

From to PAEE

Sunrise and sunset
Times for 24-May-2018
 Local
(UTC-8)
 Zulu
(UTC)
Morning civil twilight04:3412:34
Sunrise05:4913:49
Sunset23:4107:41
Evening civil twilight00:5608:56

Current date and time
Zulu (UTC)  25-May-2018 03:41:06
Local (UTC-8)  24-May-2018 19:41:06
 
METAR
PAQH 
28nm S 
250156Z AUTO 27009KT 10SM FEW047 BKN070 OVC090 12/03 A2965 RMK AO2 SLP041 T01220033 PWINO $
PANA 
29nm N 
250256Z AUTO 33009KT 10SM CLR 10/04 A2968 RMK AO2 SLP048 T01000044 56006
PABE 
35nm N 
250253Z 31008KT 10SM CLR 11/04 A2969 RMK AO2 SLP054 T01060039 56007
PFKW 
39nm NE 
250256Z AUTO 36007KT 4SM HZ CLR 11/04 A2968 RMK AO2 SLP048 T01110039 56006
PPIT 
43nm N 
250256Z AUTO 29008KT 10SM FEW075 BKN095 08/06 A2968 RMK AO2 RAE33 SLP050 P0000 60014 T00780061 58009 TSNO
TAF
PABE 
35nm N 
241730Z 2418/2518 12006KT P6SM VCSH BKN060 FM242100 17008KT P6SM -RA SCT030 OVC050 FM250300 32008KT P6SM SCT050 BKN080 FM250800 VRB05KT P6SM VCFG FEW005 SCT080
NOTAMs
Click for the latest NOTAMs
NOTAMs are issued by the DoD/FAA and will open in a separate window not controlled by AirNav.

 

 
 

Would you like to see your business listed on this page?

 If your business provides an interesting product or service to pilots, flight crews, aircraft, or users of the Eek Airport, you should consider listing it here.  To start the listing process, click on the button below
 
Add a business
 

Other Pages about Eek Airport

Update a link
 
Copyright © AirNav, LLC. All rights reserved. Privacy Policy  Contact